KLM565 LDDU-LOWS

Flight info

Callsign KLM565
Flight time N/A
Altitude 30000
Route AMUGO DCT NUPSO DCT DABAR DCT SABAD DCT NIPEL DCT RASTA RASTA2R
Aircraft B738/M-SDE2E3FGHIRWXY/LB1

Departure

Time 2026-04-28 17:01
Airport Dubrovnik Ruđer Bošković Airport (LDDU)

Arrival

Time N/A
Airport Salzburg Airport (LOWS)
Time Latitude Longitude Altitude Speed Heading
2026-04-28 16:32 42.56065 18.26343 535 ft 0 kts 208°
2026-04-28 16:50 42.56086 18.26356 535 ft 4 kts 192°
2026-04-28 16:51 42.56113 18.26355 535 ft 5 kts 158°
2026-04-28 16:51 42.56135 18.26333 535 ft 5 kts 126°
2026-04-28 16:51 42.56138 18.26328 535 ft 0 kts 117°
2026-04-28 16:58 42.56137 18.26330 535 ft 2 kts 117°
2026-04-28 16:58 42.56113 18.26405 535 ft 13 kts 115°
2026-04-28 16:58 42.56072 18.26513 535 ft 14 kts 117°
2026-04-28 16:58 42.56010 18.26673 535 ft 22 kts 118°
2026-04-28 16:59 42.55942 18.26844 535 ft 18 kts 118°
2026-04-28 16:59 42.55890 18.26974 535 ft 15 kts 118°
2026-04-28 16:59 42.55843 18.27094 535 ft 16 kts 118°
2026-04-28 16:59 42.55791 18.27233 535 ft 15 kts 109°
2026-04-28 17:00 42.55820 18.27325 535 ft 10 kts
2026-04-28 17:00 42.55899 18.27335 535 ft 14 kts
2026-04-28 17:00 42.55948 18.27298 535 ft 0 kts 296°
2026-04-28 17:00 42.55954 18.27283 535 ft 9 kts 296°
2026-04-28 17:01 42.56115 18.26876 535 ft 92 kts 298°
2026-04-28 17:01 42.56539 18.25810 629 ft 155 kts 298°
2026-04-28 17:01 42.57078 18.24458 1517 ft 159 kts 298°
2026-04-28 17:01 42.57630 18.23084 2375 ft 178 kts 299°
2026-04-28 17:02 42.58268 18.21513 2880 ft 205 kts 299°
2026-04-28 17:02 42.58746 18.20336 3096 ft 226 kts 298°
2026-04-28 17:02 42.59790 18.17637 3881 ft 255 kts 297°
2026-04-28 17:02 42.60635 18.15462 4750 ft 265 kts 297°
2026-04-28 17:03 42.62394 18.10990 6770 ft 273 kts 298°
2026-04-28 17:03 42.63296 18.08712 7752 ft 277 kts 298°
2026-04-28 17:03 42.64213 18.06396 8718 ft 280 kts 298°
2026-04-28 17:04 42.66079 18.01673 10576 ft 288 kts 298°
2026-04-28 17:04 42.67051 17.99201 11297 ft 301 kts 298°
2026-04-28 17:05 42.69151 17.93852 12193 ft 340 kts 298°
2026-04-28 17:05 42.70424 17.91087 12876 ft 349 kts 305°
2026-04-28 17:05 42.71984 17.88539 13724 ft 353 kts 313°
2026-04-28 17:06 42.75425 17.83699 15375 ft 360 kts 314°
2026-04-28 17:06 42.77181 17.81258 16193 ft 363 kts 314°
2026-04-28 17:06 42.80729 17.76315 17742 ft 369 kts 314°
2026-04-28 17:07 42.82527 17.73802 18500 ft 371 kts 314°
2026-04-28 17:07 42.84353 17.71249 19221 ft 374 kts 314°
2026-04-28 17:07 42.86151 17.68730 19904 ft 377 kts 314°
2026-04-28 17:07 42.88012 17.66121 20558 ft 381 kts 314°
2026-04-28 17:08 42.89866 17.63517 21200 ft 384 kts 314°
2026-04-28 17:08 42.91731 17.60896 21850 ft 387 kts 314°
2026-04-28 17:08 42.93609 17.58253 22424 ft 391 kts 314°
2026-04-28 17:08 42.95500 17.55590 23012 ft 394 kts 314°
2026-04-28 17:09 42.97428 17.52915 23593 ft 396 kts 314°
2026-04-28 17:09 42.99367 17.50238 24130 ft 399 kts 314°
2026-04-28 17:09 43.01317 17.47534 24675 ft 402 kts 314°
2026-04-28 17:09 43.03285 17.44792 25193 ft 405 kts 314°
2026-04-28 17:10 43.05258 17.42036 25676 ft 408 kts 314°
2026-04-28 17:10 43.07267 17.39221 26177 ft 410 kts 314°
2026-04-28 17:10 43.09241 17.36447 26639 ft 413 kts 314°
2026-04-28 17:10 43.11268 17.33594 27110 ft 415 kts 313°
2026-04-28 17:11 43.13282 17.30753 27509 ft 419 kts 313°
2026-04-28 17:11 43.15292 17.27913 27966 ft 420 kts 313°
2026-04-28 17:11 43.17342 17.25014 28573 ft 417 kts 313°
2026-04-28 17:11 43.19348 17.22171 29184 ft 415 kts 313°
2026-04-28 17:12 43.21341 17.19344 29722 ft 413 kts 313°
2026-04-28 17:12 43.23339 17.16506 29985 ft 416 kts 313°
2026-04-28 17:12 43.27384 17.10751 30040 ft 416 kts 313°
2026-04-28 17:13 43.31378 17.05057 30053 ft 414 kts 313°
2026-04-28 17:13 43.35336 16.99401 30057 ft 414 kts 313°
2026-04-28 17:14 43.38322 16.95129 30056 ft 414 kts 313°
2026-04-28 17:14 43.42321 16.89396 30056 ft 414 kts 313°
2026-04-28 17:15 43.46300 16.83681 30060 ft 413 kts 313°
2026-04-28 17:15 43.50269 16.77971 30060 ft 413 kts 313°
2026-04-28 17:16 43.54238 16.72250 30059 ft 413 kts 313°
2026-04-28 17:16 43.58030 16.66774 30059 ft 413 kts 313°
2026-04-28 17:17 43.62042 16.60974 30059 ft 412 kts 313°
2026-04-28 17:17 43.66012 16.55220 30059 ft 411 kts 312°
2026-04-28 17:18 43.69951 16.49500 30059 ft 412 kts 312°
2026-04-28 17:18 43.73892 16.43771 30059 ft 412 kts 313°
2026-04-28 17:19 43.77837 16.38056 30059 ft 411 kts 312°
2026-04-28 17:19 43.81762 16.32341 30060 ft 410 kts 312°
2026-04-28 17:20 43.85047 16.27547 30059 ft 410 kts 312°
2026-04-28 17:20 43.89639 16.20833 30059 ft 411 kts 312°
2026-04-28 17:21 43.93517 16.15022 30059 ft 410 kts 311°
2026-04-28 17:22 43.99266 16.06285 30059 ft 409 kts 311°
2026-04-28 17:22 44.03130 16.00501 30058 ft 410 kts 311°
2026-04-28 17:23 44.08974 15.91789 30058 ft 409 kts 311°
2026-04-28 17:23 44.13049 15.86295 30059 ft 410 kts 320°
2026-04-28 17:24 44.17873 15.82047 30060 ft 412 kts 329°
2026-04-28 17:24 44.22939 15.78347 30059 ft 412 kts 330°
2026-04-28 17:25 44.30584 15.72808 30060 ft 412 kts 330°
2026-04-28 17:26 44.35662 15.69123 30063 ft 411 kts 330°
2026-04-28 17:26 44.39910 15.66034 30064 ft 411 kts 330°
2026-04-28 17:27 44.44979 15.62353 30065 ft 411 kts 330°
2026-04-28 17:27 44.50050 15.58682 30070 ft 410 kts 330°
2026-04-28 17:28 44.55120 15.54996 30069 ft 410 kts 330°
2026-04-28 17:28 44.62726 15.49442 30071 ft 410 kts 329°
2026-04-28 17:29 44.67815 15.45733 30073 ft 409 kts 329°
2026-04-28 17:30 44.75379 15.40184 30074 ft 409 kts 329°
2026-04-28 17:30 44.82929 15.34609 30076 ft 409 kts 329°
2026-04-28 17:31 44.90462 15.29033 30076 ft 408 kts 329°
2026-04-28 17:32 44.97918 15.23475 30078 ft 408 kts 329°
2026-04-28 17:32 45.02950 15.19702 30067 ft 405 kts 329°
2026-04-28 17:33 45.07917 15.15967 30060 ft 405 kts 329°
2026-04-28 17:33 45.12078 15.12833 30063 ft 405 kts 329°
2026-04-28 17:34 45.17847 15.08480 30065 ft 405 kts 329°
2026-04-28 17:34 45.22848 15.04746 30059 ft 404 kts 329°
2026-04-28 17:35 45.27799 15.01012 30060 ft 404 kts 329°
2026-04-28 17:35 45.32752 14.97256 30057 ft 404 kts 328°
2026-04-28 17:36 45.37695 14.93495 30051 ft 403 kts 328°
2026-04-28 17:36 45.42621 14.89739 30051 ft 403 kts 328°
2026-04-28 17:37 45.47551 14.85959 30052 ft 402 kts 328°
2026-04-28 17:37 45.52452 14.82038 30052 ft 402 kts 327°
2026-04-28 17:38 45.57329 14.78119 30061 ft 403 kts 327°
2026-04-28 17:38 45.62197 14.74201 30064 ft 403 kts 327°
2026-04-28 17:39 45.67071 14.70269 30069 ft 402 kts 327°
2026-04-28 17:40 45.74372 14.64364 30072 ft 402 kts 327°
2026-04-28 17:40 45.79274 14.60415 30071 ft 402 kts 327°
2026-04-28 17:41 45.84135 14.56499 30074 ft 402 kts 327°
2026-04-28 17:41 45.88829 14.52700 30074 ft 402 kts 327°
2026-04-28 17:42 45.93725 14.48726 30074 ft 403 kts 327°
2026-04-28 17:42 45.98593 14.44764 30075 ft 403 kts 327°
2026-04-28 17:43 46.03457 14.40795 30075 ft 402 kts 327°
2026-04-28 17:43 46.08311 14.36825 30077 ft 402 kts 327°
2026-04-28 17:44 46.13168 14.32845 30080 ft 402 kts 327°
2026-04-28 17:44 46.18056 14.28830 30080 ft 402 kts 327°
2026-04-28 17:45 46.22907 14.24854 30079 ft 403 kts 327°
2026-04-28 17:45 46.27772 14.20854 30075 ft 403 kts 327°
2026-04-28 17:46 46.32630 14.16837 30076 ft 403 kts 327°
2026-04-28 17:46 46.37476 14.12815 30078 ft 402 kts 327°
2026-04-28 17:47 46.42288 14.08811 30083 ft 396 kts 326°
2026-04-28 17:47 46.47058 14.04840 30081 ft 394 kts 326°
2026-04-28 17:47 46.48636 14.03540 29907 ft 391 kts 327°
2026-04-28 17:48 46.51857 14.01258 29282 ft 386 kts 331°
2026-04-28 17:48 46.54320 13.99689 28801 ft 384 kts 332°
2026-04-28 17:48 46.56770 13.98166 28322 ft 381 kts 332°
2026-04-28 17:48 46.59219 13.96633 27841 ft 378 kts 332°
2026-04-28 17:49 46.61622 13.95120 27368 ft 376 kts 332°
2026-04-28 17:49 46.64044 13.93588 26889 ft 373 kts 332°
2026-04-28 17:49 46.66395 13.92095 26423 ft 371 kts 332°
2026-04-28 17:49 46.68761 13.90587 25955 ft 368 kts 333°
2026-04-28 17:50 46.71093 13.89097 25493 ft 366 kts 333°
2026-04-28 17:50 46.73450 13.87588 25024 ft 363 kts 333°
2026-04-28 17:50 46.75742 13.86118 24564 ft 361 kts 333°
2026-04-28 17:50 46.78089 13.84610 24095 ft 359 kts 333°
2026-04-28 17:51 46.80378 13.83139 23636 ft 358 kts 333°
2026-04-28 17:51 46.82683 13.81669 23172 ft 356 kts 333°
2026-04-28 17:51 46.84943 13.80224 22717 ft 355 kts 334°
2026-04-28 17:51 46.87223 13.78762 22256 ft 353 kts 334°
2026-04-28 17:52 46.89471 13.77317 21802 ft 352 kts 334°
2026-04-28 17:52 46.91735 13.75860 21345 ft 351 kts 334°
2026-04-28 17:52 46.96214 13.72969 20446 ft 348 kts 333°
2026-04-28 17:53 46.98425 13.71540 20003 ft 347 kts 334°
2026-04-28 17:53 47.00656 13.70095 19554 ft 346 kts 334°
2026-04-28 17:53 47.02133 13.69138 19256 ft 345 kts 334°
2026-04-28 17:53 47.04359 13.67694 18810 ft 344 kts 334°
2026-04-28 17:54 47.06539 13.66278 18374 ft 343 kts 334°
2026-04-28 17:54 47.08740 13.64847 17934 ft 342 kts 334°
2026-04-28 17:54 47.10910 13.63435 17500 ft 341 kts 334°
2026-04-28 17:54 47.13102 13.62007 17061 ft 340 kts 333°
2026-04-28 17:55 47.15253 13.60603 16634 ft 338 kts 334°
2026-04-28 17:55 47.17459 13.59162 16193 ft 337 kts 334°
2026-04-28 17:55 47.19589 13.57775 15758 ft 336 kts 334°
2026-04-28 17:55 47.21720 13.56394 15334 ft 336 kts 334°
2026-04-28 17:56 47.23908 13.54966 14907 ft 334 kts 334°
2026-04-28 17:56 47.26037 13.53577 14492 ft 333 kts 334°
2026-04-28 17:56 47.28118 13.52214 14088 ft 332 kts 334°
2026-04-28 17:56 47.30238 13.50822 13768 ft 327 kts 334°
2026-04-28 17:57 47.32312 13.49459 13575 ft 319 kts 334°
2026-04-28 17:57 47.34293 13.48155 13395 ft 304 kts 334°
2026-04-28 17:57 47.36174 13.46913 13229 ft 291 kts 334°
2026-04-28 17:57 47.37998 13.45710 13070 ft 279 kts 334°
2026-04-28 17:58 47.39775 13.44536 12917 ft 268 kts 334°
2026-04-28 17:58 47.41443 13.43434 12770 ft 259 kts 334°
2026-04-28 17:58 47.43062 13.42363 12631 ft 250 kts 334°
2026-04-28 17:58 47.44629 13.41327 12499 ft 243 kts 334°
2026-04-28 17:59 47.46189 13.40294 12370 ft 242 kts 334°
2026-04-28 17:59 47.47727 13.39277 12229 ft 242 kts 334°
2026-04-28 17:59 47.49315 13.38380 12073 ft 241 kts 343°
2026-04-28 17:59 47.50961 13.38003 11834 ft 241 kts 354°
2026-04-28 18:00 47.52639 13.37924 11564 ft 241 kts 355°
2026-04-28 18:00 47.54209 13.37157 11186 ft 237 kts 321°
2026-04-28 18:00 47.55184 13.35218 10892 ft 230 kts 294°
2026-04-28 18:00 47.55700 13.33201 10602 ft 229 kts 289°
2026-04-28 18:01 47.56232 13.30927 10207 ft 231 kts 290°
2026-04-28 18:01 47.56813 13.28659 9731 ft 236 kts 291°
2026-04-28 18:01 47.57436 13.26388 9235 ft 241 kts 293°
2026-04-28 18:01 47.58100 13.24010 8767 ft 243 kts 295°
2026-04-28 18:02 47.58952 13.21831 8333 ft 243 kts 309°
2026-04-28 18:02 47.60167 13.20069 7879 ft 243 kts 322°
2026-04-28 18:02 47.61563 13.18473 7120 ft 256 kts 324°
2026-04-28 18:02 47.62508 13.17395 6697 ft 263 kts 324°
2026-04-28 18:03 47.63942 13.15767 6510 ft 252 kts 326°
2026-04-28 18:03 47.65426 13.14484 6379 ft 237 kts 338°
2026-04-28 18:03 47.66924 13.13606 6283 ft 222 kts 342°
2026-04-28 18:03 47.68335 13.12879 6203 ft 207 kts 344°
2026-04-28 18:04 47.69687 13.12205 6108 ft 191 kts 345°
2026-04-28 18:04 47.70852 13.11404 5936 ft 180 kts 331°
2026-04-28 18:04 47.71893 13.10253 5608 ft 183 kts 323°
2026-04-28 18:04 47.72821 13.08980 5234 ft 184 kts 316°
2026-04-28 18:05 47.73579 13.07431 4879 ft 182 kts 304°
2026-04-28 18:05 47.73982 13.06315 4599 ft 183 kts 299°
2026-04-28 18:05 47.74830 13.04089 3962 ft 183 kts 310°
2026-04-28 18:05 47.75715 13.02723 3526 ft 176 kts 323°